EN614 ENAN-ENAT

Flight info

Callsign EN614
Flight time N/A
Altitude 2500
Route BARDUFOSS KOBBE HESTVIK
Aircraft EH10/L-SDE3/L

Departure

Time 2026-04-22 18:01
Airport Andøya Airport, Andenes (ENAN)

Arrival

Time N/A
Airport Alta Airport (ENAT)
Time Latitude Longitude Altitude Speed Heading
2026-04-22 17:53 69.30899 16.12651 50 ft 0 kts
2026-04-22 17:56 69.30888 16.12651 75 ft 1 kts
2026-04-22 17:58 69.31039 16.12693 182 ft 54 kts 11°
2026-04-22 17:58 69.31409 16.12788 448 ft 105 kts 14°
2026-04-22 17:59 69.31649 16.12857 505 ft 126 kts 16°
2026-04-22 17:59 69.31856 16.12923 492 ft 142 kts 14°
2026-04-22 18:00 69.32334 16.13072 359 ft 167 kts 24°
2026-04-22 18:00 69.33472 16.13722 519 ft 154 kts 54°
2026-04-22 18:01 69.34137 16.15359 1352 ft 118 kts 76°
2026-04-22 18:01 69.34118 16.18038 1335 ft 166 kts 96°
2026-04-22 18:01 69.33729 16.21347 1116 ft 188 kts 99°
2026-04-22 18:01 69.33339 16.24850 970 ft 178 kts 102°
2026-04-22 18:02 69.32957 16.27836 1258 ft 155 kts 102°
2026-04-22 18:02 69.32505 16.30794 902 ft 174 kts 114°
2026-04-22 18:02 69.31981 16.33970 489 ft 180 kts 121°
2026-04-22 18:02 69.31419 16.37107 267 ft 178 kts 121°
2026-04-22 18:03 69.30954 16.39633 132 ft 162 kts 124°
2026-04-22 18:04 69.30490 16.42246 198 ft 137 kts 118°
2026-04-22 18:04 69.30077 16.44577 186 ft 129 kts 115°
2026-04-22 18:04 69.29699 16.46873 294 ft 129 kts 111°
2026-04-22 18:04 69.29341 16.49196 329 ft 133 kts 123°
2026-04-22 18:05 69.28980 16.51716 282 ft 139 kts 112°
2026-04-22 18:05 69.28677 16.54311 278 ft 144 kts 112°
2026-04-22 18:05 69.28416 16.57126 271 ft 150 kts 105°
2026-04-22 18:05 69.28135 16.59984 355 ft 155 kts 104°
2026-04-22 18:06 69.27899 16.63032 396 ft 159 kts 114°
2026-04-22 18:06 69.27695 16.66086 427 ft 161 kts 119°
2026-04-22 18:06 69.27334 16.69149 403 ft 168 kts 121°
2026-04-22 18:06 69.26872 16.72223 382 ft 173 kts 121°
2026-04-22 18:07 69.26333 16.75304 426 ft 173 kts 117°
2026-04-22 18:07 69.25787 16.78281 565 ft 168 kts 116°
2026-04-22 18:07 69.25222 16.81094 758 ft 166 kts 121°
2026-04-22 18:07 69.24656 16.83932 874 ft 169 kts 105°
2026-04-22 18:08 69.24393 16.87154 943 ft 171 kts 79°
2026-04-22 18:08 69.24492 16.90659 638 ft 188 kts 89°
2026-04-22 18:08 69.24587 16.94366 604 ft 186 kts 82°
2026-04-22 18:08 69.24635 16.97850 870 ft 175 kts 89°
2026-04-22 18:09 69.24585 17.01362 920 ft 182 kts 89°
2026-04-22 18:09 69.24423 17.04925 926 ft 184 kts 94°
2026-04-22 18:09 69.24247 17.08464 1074 ft 181 kts 95°
2026-04-22 18:09 69.24090 17.11976 1479 ft 179 kts 89°
2026-04-22 18:10 69.23939 17.14224 1895 ft 178 kts 86°
2026-04-22 18:11 69.23878 17.14934 1991 ft 185 kts 86°
2026-04-22 18:11 69.23541 17.18551 1909 ft 189 kts 104°
2026-04-22 18:11 69.22999 17.21898 1825 ft 197 kts 112°
2026-04-22 18:11 69.22383 17.25324 1377 ft 188 kts 107°
2026-04-22 18:12 69.21756 17.28442 1380 ft 181 kts 107°
2026-04-22 18:12 69.21197 17.31510 1210 ft 174 kts 111°
2026-04-22 18:12 69.20837 17.33533 1284 ft 177 kts 114°